Home > Weather > Tianjin > Past weeks

Flag for China Weather for the Past 2 Weeks in Tianjin, Tianjin Municipality, China

Now
21 °F

Clear.


Feels Like: 21 °F
Forecast: 23 / 47 °F
Wind: No wind

Location: Tianjin / Zhangguizhu

Current Time: Feb 7, 2016 at 5:16:21 AM

Latest Report: Feb 7, 2016 at 4:30 AM


Visibility: 4 mi

Pressure: 30.18 "Hg

Humidity: 63%

Dew point: 10 °F

Location of TianjinLocation

Historic Weather in Tianjin — Graph

°F

Tianjin Temperature Yesterday

Maximum temperature yesterday: 43 °F (at 2:30 PM)
Minimum temperature yesterday: 21 °F (at 6:00 AM)
Average temperature yesterday: 33 °F

High & Low Weather Summary for the Past Weeks

 TemperatureHumidityPressure
High45 °F (Feb 3, 1:30 PM)86% (Jan 28, 5:30 AM)30.83 "Hg (Jan 28, 5:30 AM)
Low1 °F (Jan 23, 4:30 AM)12% (Feb 4, 2:30 PM)30.21 "Hg (Feb 7, 3:00 AM)
Average26 °F36%30.49 "Hg
* Reported Jan 23 4:00 AM — Feb 7 4:00 AM, Tianjin, Weather by CustomWeather, © 2016

Note: Actual official high and low records may vary slightly from our data, if they occured in-between our weather recording intervals... More about our weather records

Advertising

Tianjin Weather History for the Previous 24 Hours

 ConditionsComfort  
Time TempWeatherWind HumidityBarometerVisibility
4:00 AM
Sun, Feb 7
23 °FHaze.1 mph50%30.21 "Hg3 mi
3:30 AM23 °FHaze.1 mph50%30.21 "Hg3 mi
3:00 AM21 °FHaze.1 mph63%30.21 "Hg3 mi
2:30 AM21 °FHaze.1 mph63%30.24 "Hg3 mi
2:00 AM21 °FHaze.1 mph58%30.24 "Hg3 mi
1:30 AM32 °FClear.3 mph27%30.24 "Hg4 mi
1:00 AM32 °FClear.3 mph27%30.27 "Hg4 mi
12:30 AM34 °FClear.6 mph27%30.27 "Hg4 mi
12:00 AM25 °FClear.1 mph54%30.27 "Hg4 mi
11:30 PM
Sat, Feb 6
28 °FClear.3 mph47%30.30 "Hg4 mi
11:00 PM25 °FClear.1 mph54%30.30 "Hg4 mi
10:30 PM34 °FClear.1 mph27%30.30 "Hg4 mi
10:00 PM32 °FClear.3 mph34%30.30 "Hg4 mi
9:30 PM34 °FClear.1 mph27%30.33 "Hg4 mi
9:00 PM36 °FClear.3 mph23%30.33 "Hg4 mi
8:30 PM36 °FClear.3 mph23%30.33 "Hg4 mi
8:00 PM36 °FClear.6 mph23%30.33 "Hg4 mi
7:30 PM37 °FClear.3 mph22%30.33 "Hg4 mi
7:00 PM34 °FClear.3 mph25%30.33 "Hg10 mi
6:30 PM34 °FClear.1 mph25%30.33 "Hg10 mi
6:00 PM37 °FClear.1 mph20%30.33 "Hg10 mi
5:30 PM39 °FSunny.1 mph17%30.33 "Hg10 mi
5:00 PM41 °FSunny.6 mph16%30.33 "Hg10 mi
4:30 PM41 °FPassing clouds.6 mph16%30.33 "HgN/A
4:00 PM43 °FPassing clouds.8 mph15%30.36 "HgN/A
3:30 PM43 °FPassing clouds.8 mph15%30.36 "HgN/A
3:00 PM41 °FPassing clouds.10 mph16%30.36 "HgN/A
2:30 PM43 °FPassing clouds.10 mph15%30.36 "HgN/A
2:00 PM41 °FPassing clouds.10 mph16%30.39 "HgN/A
1:30 PM41 °FSunny.13 mph17%30.39 "Hg10 mi
1:00 PM41 °FPassing clouds.15 mph17%30.42 "HgN/A
12:30 PM41 °FPassing clouds.13 mph17%30.42 "HgN/A
12:00 PM39 °FSunny.13 mph18%30.45 "Hg10 mi
11:30 AM39 °FPassing clouds.15 mph18%30.45 "HgN/A
11:00 AM37 °FSunny.17 mph20%30.45 "Hg10 mi
10:00 AM36 °FPassing clouds.10 mph23%30.48 "HgN/A
9:30 AM34 °FSunny.6 mph25%30.48 "Hg10 mi
8:30 AM30 °FSunny.6 mph34%30.45 "Hg10 mi
8:00 AM27 °FSunny.6 mph39%30.45 "Hg10 mi
7:30 AM25 °FSunny.6 mph42%30.45 "Hg10 mi
7:00 AM25 °FClear.3 mph39%30.42 "Hg10 mi
6:30 AM25 °FClear.6 mph39%30.42 "Hg10 mi
6:00 AM21 °FClear.3 mph45%30.42 "Hg10 mi
5:30 AM23 °FClear.3 mph46%30.42 "Hg10 mi
Weather by CustomWeather, © 2016

See weather overviewHow to use our weather pages